TimeCDT,TemperatureF,Dew PointF,Humidity,Sea Level PressureIn,VisibilityMPH,Wind Direction,Wind SpeedMPH,Gust SpeedMPH,PrecipitationIn,Events,Conditions,WindDirDegrees,DateUTC
12:53 AM,54.0,43.0,66,29.91,10.0,Calm,Calm,-,N/A,,Clear,0,2012-10-03 05:53:00
1:53 AM,51.1,42.1,71,29.91,10.0,SSE,3.5,-,N/A,,Clear,160,2012-10-03 06:53:00
2:53 AM,48.9,43.0,80,29.92,10.0,South,3.5,-,N/A,,Clear,170,2012-10-03 07:53:00
3:53 AM,46.9,44.1,90,29.93,10.0,South,3.5,-,N/A,,Clear,190,2012-10-03 08:53:00
4:53 AM,46.9,45.0,93,29.93,10.0,SSW,3.5,-,N/A,,Clear,210,2012-10-03 09:53:00
5:53 AM,46.9,41.0,80,29.94,10.0,South,3.5,-,N/A,,Clear,180,2012-10-03 10:53:00
6:53 AM,46.0,44.1,93,29.96,10.0,South,3.5,-,N/A,,Clear,170,2012-10-03 11:53:00
7:53 AM,45.0,43.0,93,29.97,10.0,South,3.5,-,N/A,,Clear,180,2012-10-03 12:53:00
8:53 AM,55.9,48.0,75,29.97,10.0,Calm,Calm,-,N/A,,Clear,0,2012-10-03 13:53:00
9:53 AM,64.0,46.9,54,29.97,10.0,SSW,10.4,-,N/A,,Clear,210,2012-10-03 14:53:00
10:53 AM,69.1,46.9,45,29.97,10.0,SSW,10.4,-,N/A,,Clear,210,2012-10-03 15:53:00
11:53 AM,72.0,46.0,40,29.96,10.0,South,11.5,-,N/A,,Clear,180,2012-10-03 16:53:00
12:53 PM,73.9,44.1,34,29.94,10.0,South,9.2,-,N/A,,Clear,190,2012-10-03 17:53:00
1:53 PM,75.0,42.1,31,29.92,10.0,SSW,10.4,19.6,N/A,,Clear,200,2012-10-03 18:53:00
2:53 PM,75.9,43.0,31,29.91,10.0,SSW,12.7,-,N/A,,Clear,210,2012-10-03 19:53:00
3:53 PM,75.9,44.1,32,29.90,10.0,SSW,13.8,-,N/A,,Clear,200,2012-10-03 20:53:00
4:53 PM,75.0,44.1,33,29.89,10.0,South,13.8,-,N/A,,Clear,170,2012-10-03 21:53:00
5:53 PM,73.0,45.0,37,29.91,10.0,South,11.5,-,N/A,,Clear,190,2012-10-03 22:53:00
6:53 PM,64.9,46.0,50,29.91,10.0,SSE,6.9,-,N/A,,Clear,160,2012-10-03 23:53:00
7:53 PM,66.0,45.0,47,29.93,10.0,SSE,6.9,-,N/A,,Clear,150,2012-10-04 00:53:00
8:53 PM,63.0,46.9,56,29.93,10.0,SSE,8.1,-,N/A,,Clear,150,2012-10-04 01:53:00
9:53 PM,60.1,48.0,64,29.93,10.0,SSE,8.1,-,N/A,,Clear,160,2012-10-04 02:53:00
10:53 PM,63.0,48.9,60,29.95,10.0,South,10.4,-,N/A,,Clear,170,2012-10-04 03:53:00
11:53 PM,62.1,50.0,65,29.96,10.0,South,9.2,-,N/A,,Clear,170,2012-10-04 04:53:00